Regional Weather Roundup
Issued by NWS

Home | Current Version | Previous Version | Graphics & Text | Print | Product List | Glossary On
Versions: 1 2 3 4 5 6 7 8 9 10 11 12 13 14 15 16 17 18 19 20 21 22 23 24 25 26 27 28 29 30 31 32 33 34 35 36 37 38 39 40 41 42 43 44 45 46 47 48 49 50
000
ASUS45 KBOU 051207
RWRCO

WEATHER ROUNDUP FOR COLORADO
NATIONAL WEATHER SERVICE DENVER/BOULDER CO
500 AM MST THU MAR 05 2015

NOTE: "FAIR" INDICATES FEW OR NO CLOUDS BELOW 12000 FEET WITH NO
SIGNIFICANT WEATHER AND/OR OBSTRUCTIONS TO VISIBILITY.

COZ001>005-013-030-031-051300-
...NORTHWEST COLORADO...

CITY           SKY/WX    TMP DP  RH WIND       PRES   REMARKS
CRAIG          MOCLDY     3  -2  79 SW5       30.33R WCI  -6
HAYDEN         PTCLDY     5  -2  72 E13       30.31R WCI -12
MEEKER         PTCLDY    11   2  67 E6        30.34R WCI   1
MOUNT WERNER   NOT AVBL
STEAMBOAT SPGS PTCLDY     2  -3  80 CALM      30.32R
WALDEN         PTCLDY     7   0  72 SE9       30.21R WCI  -7
$$

COZ006>008-011-051300-
...WEST CENTRAL VALLEYS...

CITY           SKY/WX    TMP DP  RH WIND       PRES   REMARKS
GRAND JUNCTION CLEAR     23   9  55 SE10      30.37R WCI  12
MONTROSE       PTCLDY    19   8  62 SE10      30.39R WCI   7
EAGLE          PTCLDY     5   1  85 E3        30.42R
RIFLE          PTCLDY    17   9  70 SE5       30.40R WCI  10
DELTA          PTCLDY    22  10  59 NE10      30.40R WCI  11
NUCLA          PTCLDY    19  10  68 E6        30.38R WCI  11
$$

COZ017>023-064>068-051300-
...SOUTHWEST COLORADO...

CITY           SKY/WX    TMP DP  RH WIND       PRES   REMARKS
DURANGO        PTCLDY    10   3  73 NE6       30.30R WCI   0
CORTEZ         CLEAR     17  10  74 NE3       30.33R
PAGOSA SPRINGS PTCLDY     3  -1  80 CALM      30.29R
TELLURIDE      PTCLDY     6  -1  71 SE7       30.29S WCI  -5
WOLF CREEK PAS   N/A      5   1  85 CALM      30.23R
$$

COZ009-010-012-014-032>034-037-058>063-051300-
...CENTRAL COLORADO...

CITY           SKY/WX    TMP DP  RH WIND       PRES   REMARKS
ASPEN          CLEAR     -1  -8  72 SW7       30.31R WCI -14
BUENA VISTA    PTCLDY     8  -7  51 W8        30.24R WCI  -5
COPPER MTN     NOT AVBL
BERTHOUD PASS  FAIR      -6 -13  71 NW35G43   30.04R WCI -35
COTTONWOOD PAS PTCLDY    16 -17  22 NW13G21   30.16R WCI   2
GUNNISON       PTCLDY    -4 -13  65 E5        30.38R WCI -15
KREMMLING      PTCLDY     0  -6  78 CALM      30.36R
LEADVILLE      CLEAR     -4 -14  62 NE9       30.20R WCI -20
SALIDA         PTCLDY    13  -5  45 NW12      30.32R WCI  -1
SUNLIGHT       PTCLDY     9   5  85 CALM        N/A
WILKERSON PASS PTCLDY     7 -17  33 NW13G22   30.09R WCI  -9
$$

COZ069>075-051300-
...SAN LUIS VALLEY/SANGRE DE CRISTO MOUNTAINS...

CITY           SKY/WX    TMP DP  RH WIND       PRES   REMARKS
ALAMOSA        PTCLDY     8   2  76 SW8       30.30R WCI  -4
LA VETA PASS   PTCLDY     7  -8  51 MISG      30.14R
SAGUACHE       PTCLDY    14   1  57 NW10      30.28S WCI   1
$$

COZ035-036-038>040-051300-
...NORTHERN COLORADO FRONT RANGE...

CITY           SKY/WX    TMP DP  RH WIND       PRES   REMARKS
DENVER INTL AP PTCLDY    16  -1  47 S15       30.14S WCI   1
DMNS CITY PARK   N/A     15   1  54 S10       30.15S WCI   2
AURORA         CLEAR     12  -3  52 S12       30.15S WCI  -2
FRONT RANGE AP PTCLDY    14   1  57 S14G20    30.15R WCI  -1
ERIE MUNI ARPT PTCLDY     1  -3  84 N3        30.16R
BOULDER MUN AP PTCLDY     9   3  78 W5        30.15R WCI   0
CENTENNIAL     PTCLDY    16  -2  45 S7        30.14S WCI   6
BROOMFIELD     PTCLDY    19   3  49 CALM      30.14S
FORT COLLINS   PTCLDY     3   0  85 N7        30.18S WCI  -9
LONGMONT       PTCLDY     4  -1  80 SW5       30.19R WCI  -6
$$

COZ041-046-047-076>085-087-088-051300-
...PIKES PEAK/PALMER DIVIDE AND SOUTHERN FOOTHILLS...

CITY           SKY/WX    TMP DP  RH WIND       PRES   REMARKS
COLO. SPRINGS  PTCLDY     1  -5  75 NE8       30.19R WCI -13
A. F. ACADEMY  CLEAR     -4  -8  80 N12       30.16R WCI -22
ELLICOTT       NOT AVBL
FALCON         PTCLDY     5  -5  62 W7        30.16S WCI  -7
FORT CARSON    CLEAR      0  -4  84 N9        30.18F WCI -15
LIMON          PTCLDY    -6 -11  79 N7        30.20S WCI -20
MONUMENT HILL  PTCLDY     7  -6  56 SW8       30.13R WCI  -6
TRINIDAD       MOCLDY     7   1  76 W13       30.25R WCI  -9
$$

COZ042>045-048>051-090-091-051300-
...NORTHEAST COLORADO...

CITY           SKY/WX    TMP DP  RH WIND       PRES   REMARKS
GREELEY ARPT   PTCLDY     3  -4  72 CALM      30.19R
AKRON          CLEAR     12   5  73 SW10      30.19S WCI  -1
BURLINGTON     CLEAR     13   6  74 SW9       30.26R WCI   1
WRAY           CLEAR     10   6  85 SW6       30.26R WCI   0
STERLING       CLEAR     10   7  85 SW10      30.22S WCI  -3
HOLYOKE        NOT AVBL
FORT MORGAN    CLEAR      5   1  84 W6        30.21S WCI  -5
$$

COZ086-089-092>099-051300-
...SOUTHEAST COLORADO...

CITY           SKY/WX    TMP DP  RH WIND       PRES   REMARKS
PUEBLO         PTCLDY     4   0  83 CALM      30.27F
LA JUNTA       CLEAR     11   5  77 SW9       30.31S WCI  -2
LAMAR          CLEAR     13   9  84 W9        30.32S WCI   1
SPRINGFIELD      N/A      5   1  83 SW3       30.31R
$$



USA.gov is the U.S. government's official web portal to all federal, state and local government web resources and services.